Weather History for K2WX - July, 2013

Change the Weather History Date:

Sunday, July 14, 2013

  Actual Average Record
Temperature  
Mean Temperature 63 °F 71 °F  
Max Temperature 69 °F 85 °F 105 °F (2002)
Min Temperature 57 °F 58 °F 48 °F (2014)
Degree Days  
Heating Degree Days 2 1  
Month to date heating degree days 2 14  
Since 1 June heating degree days 91 128  
Since 1 July heating degree days 2 14  
Cooling Degree Days 0 7  
Month to date cooling degree days 112 79  
Year to date cooling degree days 168 147  
Since 1 June cooling degree days 158 141  
Growing Degree Days 12 (Base 50)    
Moisture  
Dew Point 56 °F    
Average Humidity 80    
Maximum Humidity 93    
Minimum Humidity 67    
Precipitation  
Precipitation 0.04 in 0.08 in 0.28 in (1998)
Month to date precipitation 0.78 1.01  
Year to date precipitation 6.64 9.68  
Sea Level Pressure  
Sea Level Pressure 30.12 in    
Wind  
Wind Speed 11 mph (NE)    
Max Wind Speed 24 mph    
Max Gust Speed 29 mph    
T = Trace of Precipitation, MM = Missing Value Source: NWS Daily Summary

Daily Weather History Graph

Daily Weather History Graph

Search for Another Location

Airport or City:

Trip Planner

Search our weather history database for the weather conditions in past years. The results will help you decide how hot, cold, wet, or windy it might be!

Date:

Astronomy

Jul. 14, 2013 Rise Set
Actual Time 5:18 AM MDT 8:40 PM MDT
Civil Twilight 4:42 AM MDT 9:17 PM MDT
Nautical Twilight 3:54 AM MDT 10:04 PM MDT
Astronomical Twilight 2:53 AM MDT 11:05 PM MDT
Moon 12:00 PM MDT (7/14) 11:30 PM MDT (7/14)
Length of Visible Light 16h 34m
Length of Day
15h 21m
Waxing Crescent, 35% of the Moon is Illuminated
Jul 14
Waxing Crescent
Jul 15
First Quarter
Jul 22
Full
Jul 29
Last Quarter
Aug 6
New

Hourly Weather History & Observations

Time (MDT) Temp. Dew Point Humidity Pressure Visibility Wind Dir Wind Speed Gust Speed Precip Events Conditions
12:56 AM 64.0 °F 57.9 °F 80% 29.98 in - North 18.4 mph 28.8 mph N/A   Unknown
1:56 AM 62.1 °F 55.0 °F 78% 29.99 in - North 8.1 mph - N/A   Unknown
2:56 AM 61.0 °F 55.0 °F 81% 30.02 in - NNW 21.9 mph - N/A   Unknown
3:56 AM 57.9 °F 55.0 °F 90% 30.08 in - NNW 6.9 mph - N/A   Unknown
4:56 AM 57.0 °F 55.0 °F 93% 30.09 in - North 12.7 mph - 0.03 in   Unknown
5:56 AM 57.0 °F 54.0 °F 89% 30.08 in - NNE 13.8 mph - 0.01 in   Unknown
6:56 AM 57.0 °F 54.0 °F 89% 30.12 in - North 10.4 mph - N/A   Unknown
7:56 AM 59.0 °F 54.0 °F 83% 30.14 in - NNE 3.5 mph - N/A   Unknown
8:56 AM 60.1 °F 55.0 °F 83% 30.16 in - NNE 11.5 mph - N/A   Unknown
9:56 AM 63.0 °F 55.9 °F 78% 30.15 in - North 13.8 mph - N/A   Unknown
10:56 AM 64.0 °F 55.0 °F 73% 30.17 in - NE 11.5 mph - N/A   Unknown
11:56 AM 66.9 °F 55.0 °F 66% 30.15 in - NE 13.8 mph 20.7 mph N/A   Unknown
12:56 PM 66.0 °F 55.0 °F 68% 30.17 in - NNE 12.7 mph - N/A   Unknown
1:56 PM 64.0 °F 54.0 °F 70% 30.19 in - NNE 11.5 mph - N/A   Unknown
2:56 PM 64.0 °F 55.0 °F 73% 30.18 in - ENE 12.7 mph - N/A   Unknown
3:56 PM 63.0 °F 55.9 °F 78% 30.16 in - East 17.3 mph 23.0 mph N/A   Unknown
4:56 PM 62.1 °F 57.0 °F 84% 30.15 in - ENE 10.4 mph - N/A   Unknown
5:56 PM 64.9 °F 57.0 °F 75% 30.12 in - East 12.7 mph - N/A   Unknown
6:56 PM 66.0 °F 57.9 °F 75% 30.11 in - East 12.7 mph - N/A   Unknown
7:56 PM 64.9 °F 57.9 °F 78% 30.12 in - East 9.2 mph - N/A   Unknown
8:56 PM 63.0 °F 57.9 °F 84% 30.13 in - East 10.4 mph - N/A   Unknown
9:56 PM 64.0 °F 59.0 °F 84% 30.14 in - ESE 8.1 mph - N/A   Unknown
10:56 PM 64.0 °F 59.0 °F 84% 30.13 in - ESE 5.8 mph - N/A   Unknown
11:56 PM 64.0 °F 60.1 °F 87% 30.11 in - ESE 6.9 mph - N/A   Unknown